軌道要素
Epoch 2022 Jan. 21.0 TT = JDT 2459600.5
T 2022 Dec. 19.69235 TT Rudenko
q 1.7971152 (2000.0) P Q
z -0.0003891 Peri. 236.19334 +0.01825449 +0.04925457
+/-0.0000008 Node 88.23673 -0.18101636 +0.98244326
e 1.0006993 Incl. 87.55886 -0.98331066 -0.17994230
From 7153 observations 2013 May 12-2022 Jan. 29, mean residual 0".4.
|